{"data":{"norad_id":43578,"epoch":"2026-09-20T02:11:38.502240Z","epoch_age_seconds":50697,"freshness":"FRESH","line1":"1 43578U 18061K   26263.09141785  .00000031  00000+0  40106-5 0  9996","line2":"2 43578  86.4007  17.0152 0002222  94.9097 265.2352 14.34217565426988","mean_motion":14.34217565,"eccentricity":0.0002222,"inclination_deg":86.4007,"raan_deg":17.0152,"arg_perigee_deg":94.9097,"mean_anomaly_deg":265.2352,"bstar":4.0106e-6,"rev_number":42698,"period_min":100.40317697545,"perigee_km":776.07774988602,"apogee_km":779.25778952567,"semimajor_km":7155.8047697058,"source":"CELESTRAK","updated_at":"2026-09-20T09:00:36.354730Z"}}